Location: Chuathbaluk
(61.5726°N, 159.2454°W)
Time: 15:57:42
(UTC+00:00)

Transit 2A - All Passes

Search period start: 26 November 2020 00:00
Search period end: 06 December 2020 00:00
Orbit: 594 x 964 km, 66.7° (Epoch: 26 November)

Date Brightness Start Highest point End Pass type
(mag) Time Alt. Az. Time Alt. Az. Time Alt. Az.
26 Nov - 03:49:29 10° SSE 03:53:30 18° ESE 03:57:23 10° ENE visible
26 Nov - 05:29:44 10° SSW 05:35:47 53° SE 05:41:24 10° NE visible
26 Nov - 07:12:52 10° WSW 07:19:02 72° NNW 07:24:41 10° ENE visible
26 Nov - 08:57:05 10° W 09:02:55 51° N 09:08:13 10° ENE visible
26 Nov - 10:41:05 10° WNW 10:46:52 65° NNE 10:52:03 10° ESE night (unlit)
26 Nov - 12:24:39 10° NW 12:30:10 58° SW 12:35:04 10° SSE night (unlit)
26 Nov - 14:08:50 10° WNW 14:12:16 17° WSW 14:15:30 10° SSW night (unlit)
27 Nov - 03:16:36 10° SE 03:19:39 14° ESE 03:22:38 10° ENE visible
27 Nov - 04:55:51 10° SSW 05:01:42 44° SE 05:07:11 10° ENE visible
27 Nov - 06:38:35 10° WSW 06:44:47 81° NNW 06:50:28 10° ENE visible
27 Nov - 08:22:42 10° W 08:28:36 52° N 08:33:56 10° ENE visible
27 Nov - 10:06:50 10° WNW 10:12:36 59° NNE 10:17:46 10° E night (unlit)
27 Nov - 11:50:26 10° NW 11:56:03 70° SW 12:01:03 10° SE night (unlit)
27 Nov - 13:34:18 10° WNW 13:38:24 22° WSW 13:42:12 10° SSW night (unlit)
28 Nov - 02:44:37 10° ESE 02:45:50 11° ESE 02:47:03 10° E visible
28 Nov - 04:22:05 10° S 04:27:40 36° ESE 04:32:56 10° ENE visible
28 Nov - 06:04:21 10° SW 06:10:34 89° SE 06:16:17 10° NE visible
28 Nov - 07:48:20 10° W 07:54:16 55° NNW 07:59:40 10° ENE visible
28 Nov - 09:32:31 10° WNW 09:38:17 55° NNE 09:43:27 10° E visible
28 Nov - 11:16:13 10° NW 11:21:54 83° SW 11:26:57 10° SE night (unlit)
28 Nov - 12:59:55 10° WNW 13:04:29 28° WSW 13:08:41 10° S night (unlit)
29 Nov - 03:48:26 10° S 03:53:40 29° ESE 03:58:37 10° ENE visible
29 Nov - 05:30:12 10° SW 05:36:23 77° SE 05:42:06 10° NE visible
29 Nov - 07:13:58 10° W 07:19:58 58° NNW 07:25:25 10° ENE visible
29 Nov - 08:58:13 10° WNW 09:03:58 52° N 09:09:08 10° E visible
29 Nov - 10:42:00 10° WNW 10:47:42 85° NNE 10:52:48 10° ESE night (unlit)
29 Nov - 12:25:35 10° WNW 12:30:31 35° WSW 12:35:00 10° S night (unlit)
30 Nov - 03:14:57 10° SSE 03:19:43 24° ESE 03:24:15 10° ENE visible
30 Nov - 04:56:07 10° SW 05:02:14 66° SE 05:07:54 10° NE visible
30 Nov - 06:39:37 10° WSW 06:45:41 63° NNW 06:51:11 10° ENE visible
30 Nov - 08:23:53 10° WNW 08:29:38 51° N 08:34:50 10° E visible
30 Nov - 10:07:45 10° WNW 10:13:29 74° NNE 10:18:35 10° ESE night (unlit)
30 Nov - 11:51:18 10° WNW 11:56:31 44° SW 12:01:12 10° SSE night (unlit)
30 Nov - 13:36:18 10° W 13:38:20 12° WSW 13:40:18 10° SW night (unlit)
01 Dec - 02:41:41 10° SSE 02:45:48 19° ESE 02:49:46 10° ENE visible
01 Dec - 04:22:06 10° SSW 04:28:07 55° SE 04:33:43 10° NE visible
01 Dec - 06:05:18 10° WSW 06:11:24 70° NNW 06:16:58 10° ENE visible
01 Dec - 07:49:31 10° WNW 07:55:18 51° N 08:00:32 10° ENE visible
01 Dec - 09:33:31 10° WNW 09:39:13 66° NNE 09:44:20 10° ESE visible
01 Dec - 11:17:03 10° NW 11:22:28 55° SW 11:27:18 10° SSE night (unlit)
01 Dec - 13:01:21 10° WNW 13:04:31 16° WSW 13:07:31 10° SW night (unlit)
02 Dec - 02:08:43 10° SE 02:11:56 15° ESE 02:15:04 10° ENE daylight
02 Dec - 03:48:11 10° SSW 03:54:02 45° SE 03:59:30 10° ENE visible
02 Dec - 05:31:01 10° WSW 05:37:10 79° NNW 05:42:46 10° ENE visible
02 Dec - 07:15:09 10° W 07:20:58 52° N 07:26:14 10° ENE visible
02 Dec - 08:59:15 10° WNW 09:04:57 60° NNE 09:10:03 10° E visible
02 Dec - 10:42:50 10° NW 10:48:21 67° SW 10:53:17 10° SE night (unlit)
02 Dec - 12:26:46 10° WNW 12:30:40 21° WSW 12:34:17 10° SSW night (unlit)
03 Dec - 01:36:28 10° ESE 01:38:07 11° ESE 01:39:44 10° E daylight
03 Dec - 03:14:23 10° S 03:20:00 37° ESE 03:25:15 10° ENE visible
03 Dec - 04:56:47 10° SW 05:02:56 89° NW 05:08:35 10° NE visible
03 Dec - 06:40:48 10° W 06:46:39 54° N 06:51:58 10° ENE visible
03 Dec - 08:24:57 10° WNW 08:30:38 55° NNE 08:35:45 10° E visible
03 Dec - 10:08:37 10° NW 10:14:13 80° SW 10:19:13 10° SE night (unlit)
03 Dec - 11:52:20 10° WNW 11:56:45 26° WSW 12:00:49 10° S night (unlit)
04 Dec - 02:40:43 10° S 02:45:59 30° ESE 02:50:58 10° ENE visible
04 Dec - 04:22:36 10° SW 04:28:45 80° SE 04:34:23 10° NE visible
04 Dec - 06:06:25 10° W 06:12:20 57° NNW 06:17:42 10° ENE visible
04 Dec - 07:50:39 10° WNW 07:56:20 52° N 08:01:26 10° E visible
04 Dec - 09:34:23 10° NW 09:40:02 87° NNE 09:45:04 10° SE visible
04 Dec - 11:18:00 10° WNW 11:22:49 33° WSW 11:27:10 10° S night (unlit)
05 Dec - 02:07:12 10° SSE 02:12:01 24° ESE 02:16:36 10° ENE daylight
05 Dec - 03:48:29 10° SW 03:54:35 68° SE 04:00:12 10° NE visible
05 Dec - 05:32:04 10° WSW 05:38:03 62° NNW 05:43:29 10° ENE visible
05 Dec - 07:16:18 10° WNW 07:22:00 51° N 07:27:07 10° E visible
05 Dec - 09:00:10 10° WNW 09:05:49 76° NNE 09:10:52 10° ESE visible
05 Dec - 10:43:43 10° WNW 10:48:48 42° SW 10:53:23 10° SSE night (unlit)
05 Dec - 12:29:03 10° W 12:30:34 11° WSW 12:32:03 10° WSW night (unlit)
